Location: Fort Wayne
(41.1310°N, 85.1290°W)
Time: 13:08:20
(UTC-04:00)

COSMOS 2428 - Visible Passes

Search period start: 23 October 2017 00:00
Search period end: 02 November 2017 00:00
Orbit: 847 x 855 km, 70.9° (Epoch: 23 October)

Date Brightness Start Highest point End Pass type
(mag) Time Alt. Az. Time Alt. Az. Time Alt. Az.
23 Oct 2.8 19:44:32 10° NNW 19:50:15 86° WSW 19:55:57 10° SSE visible
23 Oct 5.8 21:32:23 10° W 21:33:35 11° W 21:34:47 10° WSW visible
24 Oct 2.8 19:32:22 10° NNW 19:38:05 86° WSW 19:43:46 10° SSE visible
24 Oct 5.8 21:20:12 10° W 21:21:24 11° W 21:22:35 10° WSW visible
25 Oct 2.8 19:20:11 10° NNW 19:25:54 86° WSW 19:31:35 10° SSE visible
25 Oct 5.9 21:08:02 10° W 21:09:13 11° W 21:10:23 10° WSW visible
26 Oct 2.8 19:08:00 10° NNW 19:13:43 86° WSW 19:19:24 10° SSE visible
26 Oct 6.0 20:55:51 10° W 20:57:02 11° W 20:58:12 10° WSW visible
27 Oct 6.1 20:43:41 10° W 20:44:51 11° W 20:46:00 10° WSW visible
28 Oct 6.1 20:31:31 10° W 20:32:39 11° W 20:33:49 10° WSW visible
29 Oct 6.2 20:19:20 10° W 20:20:28 11° W 20:21:37 10° WSW visible
30 Oct 5.2 07:41:12 10° SSE 07:45:57 28° ESE 07:50:43 10° NE visible
30 Oct 6.3 20:07:09 10° W 20:08:17 11° W 20:09:25 10° WSW visible
31 Oct 5.1 07:29:01 10° SSE 07:33:46 28° ESE 07:38:32 10° NE visible
31 Oct 6.4 19:54:59 10° W 19:56:05 11° W 19:57:13 10° WSW visible
01 Nov 5.1 07:16:50 10° SSE 07:21:35 28° ESE 07:26:21 10° NE visible
01 Nov 6.5 19:42:48 10° W 19:43:55 11° W 19:45:02 10° WSW visible
